Theta_e
294 295 295 297 295 296 296 296 296 296 296 296 296 296 298 299 292 291 298 301 299 300 303 306 307 309 312 313 313 314 315 317 321 322 325 326 327 329 329 329 330 329 329 330 331 331 332 332 331 330 330 330 330 331 332 332 331 332 332 331 330 328 327 325 324 323 323 324 325 325 323 322 321 322 321 320 318 316 316 316 315 314 314 313 311 310 310
293 295 295 296 295 295 296 296 296 297 297 297 296 297 298 298 298 299 300 301 300 302 304 307 310 313 312 313 314 314 313 317 320 322 324 323 326 328 328 328 329 329 328 329 331 332 330 331 330 330 330 329 329 329 329 330 331 332 331 330 328 327 326 326 324 323 324 324 324 323 322 321 321 321 320 319 317 316 315 315 315 315 314 313 312 311 310
292 294 295 296 296 295 295 296 296 297 297 297 297 297 299 300 299 300 299 299 299 304 306 306 313 314 310 310 310 310 312 314 319 321 323 325 326 328 328 328 328 328 329 330 330 329 329 330 330 331 329 329 329 329 329 329 329 330 330 328 327 327 326 326 325 324 324 324 323 321 321 321 321 321 319 318 316 315 315 314 314 314 313 312 312 311 310
290 294 294 296 296 296 295 296 296 296 295 295 296 294 299 297 296 298 298 296 297 303 306 307 308 308 308 309 310 310 313 315 317 320 322 324 326 327 327 328 328 327 328 330 328 328 328 329 330 330 329 329 328 327 329 328 328 329 328 327 326 325 325 324 323 323 323 322 320 320 320 320 319 320 319 317 315 314 314 314 314 314 313 312 312 312 311
288 294 296 295 295 294 292 292 296 298 298 298 299 299 300 300 301 296 292 295 302 304 305 305 306 307 306 308 309 310 311 316 317 319 322 324 326 327 326 325 326 327 328 330 329 329 329 329 330 330 330 327 327 327 327 328 328 327 327 325 324 324 324 323 322 322 321 321 320 320 319 319 318 319 319 316 313 312 313 314 314 312 312 312 312 312 311
288 294 295 296 291 283 286 299 302 300 298 298 297 297 299 301 301 299 301 302 304 304 304 304 305 306 306 309 314 316 316 316 320 320 323 324 327 328 326 327 327 328 329 330 331 330 330 330 330 331 330 327 327 327 327 328 327 328 327 326 325 324 323 323 323 322 321 320 319 319 318 317 317 317 317 315 313 312 313 313 313 313 313 312 312 311 311
288 292 294 288 283 285 298 303 303 303 302 300 299 300 300 301 301 302 301 302 303 304 305 306 307 308 309 314 315 314 315 316 317 321 321 323 328 327 327 327 328 329 329 331 331 331 330 329 331 330 328 328 327 327 327 326 327 327 327 326 325 325 325 324 324 321 320 319 318 317 317 316 316 316 318 314 312 312 312 312 311 311 312 311 312 311 311
292 290 289 281 284 296 303 302 304 304 303 302 301 299 301 302 302 302 301 302 303 305 305 306 307 308 311 313 313 313 314 318 321 322 323 326 329 328 328 329 329 329 331 331 330 330 330 330 330 329 328 328 327 326 327 325 324 325 326 326 325 324 322 321 320 319 319 318 317 316 316 315 314 313 313 312 311 312 312 312 312 311 311 312 311 311 310
287 289 288 288 298 297 298 298 300 301 298 299 297 291 297 303 304 303 302 303 303 304 305 306 307 309 311 309 310 313 314 318 322 323 324 327 330 331 332 331 330 331 331 331 332 332 330 330 328 328 327 326 326 325 325 325 326 325 324 324 324 323 322 321 320 319 318 317 316 316 315 314 313 313 312 311 311 311 311 313 312 310 311 310 311 310 309
293 289 288 288 287 284 290 303 305 306 306 306 305 300 296 304 304 305 304 303 304 305 305 305 307 312 307 304 305 311 317 322 325 325 325 328 330 332 332 331 332 332 332 331 331 331 331 330 330 331 329 327 325 325 326 326 326 326 325 323 323 322 321 319 318 318 318 317 315 314 314 312 312 312 312 311 311 311 309 309 311 310 309 310 310 310 309
291 289 286 286 284 288 300 303 307 309 311 309 307 299 293 303 305 306 305 304 305 305 305 306 309 307 302 302 307 314 322 325 326 326 326 327 329 331 331 330 330 331 332 331 329 329 330 329 328 328 327 327 325 324 324 325 325 324 324 325 325 323 321 320 319 318 317 316 314 313 313 313 313 312 311 311 311 311 310 309 308 309 309 309 311 309 309
290 289 287 285 289 289 300 306 308 309 309 309 304 288 289 307 305 306 306 305 305 306 307 308 309 305 299 302 316 323 326 327 328 327 327 327 329 329 331 331 333 331 330 328 328 327 326 327 328 327 327 326 324 324 322 321 320 321 322 323 322 322 320 319 318 316 316 315 314 313 312 312 312 311 311 310 310 309 309 308 307 307 307 307 306 306 308
290 288 289 289 290 298 306 306 307 309 312 306 291 286 296 311 313 314 311 307 307 307 307 308 306 309 310 321 325 324 326 326 327 329 328 325 328 327 329 329 323 330 330 328 328 328 329 328 328 328 327 326 325 324 323 321 321 322 324 324 323 322 320 318 316 315 315 314 313 311 310 310 311 310 310 310 309 309 308 308 307 307 306 307 307 307 308
289 290 288 287 291 301 307 308 308 310 306 291 289 305 314 315 313 312 313 314 313 314 310 311 311 312 317 325 326 326 325 328 329 328 327 324 326 329 328 326 327 329 328 329 328 328 329 328 328 328 327 325 325 325 324 324 324 326 326 326 326 324 320 317 315 314 313 312 312 311 310 309 308 308 309 308 307 307 307 306 306 306 305 305 305 305 307
294 290 287 286 284 296 310 309 306 309 297 300 310 314 315 316 314 314 316 314 316 315 313 315 315 317 321 324 323 324 327 328 329 327 327 328 328 329 330 329 329 328 328 327 327 329 328 328 328 328 327 325 325 325 325 326 325 325 323 321 320 320 318 317 314 313 311 309 308 308 308 308 307 306 306 306 306 307 306 305 304 304 304 304 304 304 305
288 289 287 287 295 302 311 310 297 309 312 314 317 316 313 315 315 314 316 317 319 318 316 315 315 320 320 322 325 327 328 329 331 330 329 329 330 330 330 329 329 329 328 328 328 329 328 328 328 328 327 325 324 324 325 328 327 326 324 322 320 318 317 315 313 312 311 309 308 307 307 306 305 305 304 305 305 304 304 303 302 303 302 302 302 302 303
293 290 293 300 305 306 310 312 313 315 317 319 319 317 315 314 314 315 315 317 318 319 319 320 322 319 320 324 325 328 329 329 329 330 330 331 330 330 329 327 328 327 328 327 328 328 328 328 328 327 327 326 325 324 326 327 326 324 324 323 321 318 317 315 314 312 310 308 308 307 306 305 304 304 304 305 304 304 304 303 303 303 302 302 301 301 301
303 303 303 305 305 306 310 313 316 316 317 319 318 314 314 316 317 319 320 320 320 321 323 321 321 320 322 325 325 328 329 329 329 330 330 330 331 330 329 329 328 328 328 328 327 327 327 328 327 326 328 327 324 325 328 327 326 326 324 321 319 317 316 314 312 310 307 306 306 306 306 306 305 305 305 304 304 304 304 304 304 303 301 300 299 300 300
296 291 303 303 304 309 313 312 317 316 317 318 319 317 317 317 318 319 321 323 322 322 322 322 321 321 324 323 324 326 327 328 328 328 329 330 330 329 328 329 327 327 328 326 326 326 326 327 327 327 328 327 326 328 327 328 325 321 320 319 317 316 314 312 310 308 306 305 305 306 307 307 308 307 306 306 306 305 305 304 303 302 301 300 299 299 300
295 294 302 306 309 311 314 314 314 314 315 317 319 318 320 319 318 318 318 320 320 322 321 322 321 321 323 324 324 325 325 326 327 328 329 330 330 331 331 330 328 328 327 327 326 326 326 327 327 327 327 327 327 328 327 326 325 323 320 319 318 316 314 311 309 308 307 299 304 307 308 309 308 308 308 307 306 305 304 304 303 302 301 300 299 299 300
300 303 305 307 308 311 311 314 317 316 316 315 318 320 318 318 317 318 318 319 318 320 320 322 321 321 323 324 324 323 324 325 326 327 327 329 330 330 329 329 327 328 328 325 326 325 325 326 327 326 327 327 327 328 328 327 326 321 319 316 316 317 315 313 311 309 308 307 309 309 309 310 310 308 306 306 306 306 308 307 306 304 303 301 300 300 300
295 297 303 305 298 298 309 314 315 315 316 317 318 317 317 317 316 316 317 318 319 319 321 321 321 321 322 324 326 323 324 325 325 328 328 329 329 329 330 329 329 328 328 327 326 325 326 327 326 326 327 327 327 326 325 327 324 320 319 317 317 316 314 312 310 308 307 307 307 307 307 306 307 307 299 300 304 308 307 300 297 297 296 301 300 300 299
295 306 308 310 309 309 312 312 315 317 317 316 315 314 315 316 317 317 317 316 317 317 318 321 320 320 323 324 325 325 326 327 328 328 328 327 327 327 328 328 327 327 327 326 326 326 326 326 325 326 326 326 326 325 325 324 326 322 319 316 315 314 312 311 308 308 306 307 307 307 307 307 308 307 305 301 291 292 297 296 294 292 294 294 294 294 299
308 308 311 312 311 308 313 315 315 316 318 317 314 316 316 315 315 316 316 316 316 316 317 319 321 321 321 323 325 325 326 326 326 327 328 327 327 327 328 329 327 327 327 326 325 324 325 325 325 326 325 325 325 324 323 321 321 323 319 315 313 310 310 309 306 307 307 307 308 308 307 307 307 305 303 302 301 293 291 292 292 291 292 291 292 292 293
306 313 312 314 313 314 314 314 314 314 316 316 315 314 315 316 316 316 315 316 317 317 316 317 320 322 321 322 323 325 325 326 325 325 322 321 323 325 326 326 326 326 327 327 327 326 325 324 325 324 324 324 324 324 323 321 320 317 316 315 314 311 310 307 306 307 307 308 308 309 308 307 308 307 305 303 301 299 297 291 291 291 291 291 291 291 291
312 313 312 313 314 314 314 312 313 314 315 315 316 317 315 314 316 315 316 317 317 318 318 318 318 320 322 322 323 325 325 324 320 321 325 324 323 324 324 324 325 327 327 326 325 324 324 323 324 325 324 324 324 324 323 322 321 319 318 317 318 314 312 309 308 309 310 309 309 310 309 309 308 307 306 305 303 300 298 297 296 294 292 291 291 291 291
313 314 312 310 311 312 314 312 311 313 315 315 316 315 316 315 314 315 316 316 318 317 318 319 320 321 321 322 322 324 324 322 324 324 324 323 322 323 325 325 326 327 325 326 324 321 318 323 322 323 323 323 323 322 322 322 321 321 320 319 319 304 297 302 312 311 311 310 309 309 308 307 307 306 307 306 304 302 300 299 298 297 297 297 292 290 295
313 312 311 305 306 310 312 314 314 314 314 314 314 313 314 316 315 315 315 313 313 316 317 317 317 319 320 321 323 323 323 322 322 322 322 322 324 325 325 325 326 325 324 324 324 323 321 322 322 322 321 320 319 319 319 320 320 319 319 318 315 312 310 308 310 310 309 309 308 308 307 307 308 308 307 306 303 302 300 300 300 300 300 299 299 292 290
311 312 313 313 313 313 314 314 313 313 313 313 314 314 313 312 313 313 313 313 314 315 316 317 317 317 318 319 319 320 320 321 321 321 322 322 323 324 324 324 324 323 323 321 322 322 321 321 321 320 319 320 320 319 317 317 317 317 316 316 314 311 310 309 309 308 308 308 309 309 302 304 305 306 306 305 303 304 304 303 302 303 303 303 302 299 293
311 312 311 313 313 314 312 309 309 310 311 311 312 313 313 312 312 311 311 312 313 314 314 316 317 316 317 318 320 321 320 321 321 322 322 322 322 323 324 323 323 322 322 321 321 321 321 320 320 318 318 320 319 319 317 316 316 316 315 315 313 311 311 311 310 310 309 308 306 299 303 305 306 306 306 306 305 304 305 304 304 303 304 304 299 300 296
312 313 311 312 312 313 311 311 311 310 310 310 311 311 311 311 310 310 310 310 312 313 314 315 315 316 316 317 319 321 322 322 323 322 322 322 322 323 322 322 320 317 318 319 320 320 320 320 320 320 321 320 320 319 318 318 318 317 316 315 314 301 296 297 300 311 309 306 306 305 305 305 307 305 302 304 305 305 307 307 304 304 303 305 304 302 301
312 312 310 310 310 309 309 309 310 309 309 310 309 309 308 308 307 307 307 307 309 310 313 314 315 315 316 317 318 319 320 321 319 322 322 321 321 322 322 322 321 315 321 321 320 319 320 319 319 320 321 321 320 320 320 320 320 319 318 309 317 312 301 295 306 305 307 307 306 307 305 306 307 306 305 304 306 306 307 307 306 305 305 305 304 304 304
306 304 306 308 307 308 307 308 308 308 309 308 309 309 308 308 308 308 308 309 309 310 312 314 314 316 317 318 318 318 318 319 320 320 320 320 320 321 321 321 321 321 322 321 322 321 321 320 320 321 321 321 321 321 321 320 321 320 319 318 317 311 300 299 303 309 308 308 307 308 308 306 307 307 306 305 306 305 307 306 306 304 304 305 305 306 304
308 306 304 309 309 308 308 309 310 310 310 310 309 309 309 308 309 309 309 309 311 310 311 313 315 315 316 317 317 317 317 317 317 316 318 318 319 319 319 319 320 321 321 321 322 322 322 322 321 321 319 320 321 321 321 321 320 320 320 318 316 309 308 308 306 310 309 308 307 307 306 307 307 307 305 305 307 307 305 305 305 304 305 305 306 305 300
312 311 310 308 311 310 310 308 308 307 307 306 308 309 310 310 310 309 308 310 310 311 313 313 314 315 315 316 315 316 316 315 316 316 317 317 318 319 320 319 319 319 318 319 320 321 322 322 322 321 320 321 321 321 321 321 320 319 319 317 312 310 310 310 309 310 309 309 308 308 308 307 307 302 304 306 306 307 307 305 305 304 304 305 304 304 299
311 310 310 310 311 312 312 311 310 309 307 307 307 309 310 311 311 311 310 311 312 312 313 313 314 314 315 314 314 314 313 313 313 313 315 316 318 318 318 318 317 317 317 317 318 319 319 319 295 295 319 319 319 319 320 321 321 319 319 318 311 309 309 308 309 309 308 309 309 308 308 303 304 305 305 306 306 306 307 306 306 305 304 305 303 304 301
310 310 311 310 310 311 312 310 310 309 308 308 308 309 309 310 311 311 312 312 312 312 313 313 312 312 312 312 312 312 312 312 312 312 312 313 315 315 316 316 317 316 316 315 317 317 318 316 296 296 311 315 316 317 320 302 320 319 317 317 314 310 309 309 309 309 309 309 307 308 303 302 305 306 303 306 306 307 306 305 302 303 304 304 303 303 300
310 310 310 310 309 310 311 311 310 310 310 310 310 309 309 310 311 311 311 311 311 313 313 312 312 312 313 313 312 310 309 310 311 312 312 312 312 312 312 312 312 313 314 314 316 317 315 304 294 306 313 314 313 316 312 297 299 315 316 314 312 310 309 309 308 308 309 310 305 307 305 304 304 304 304 305 305 304 304 308 307 305 305 303 302 302 301
309 311 310 309 309 310 311 311 310 309 309 308 309 310 311 310 310 311 311 310 310 310 311 310 311 310 310 310 309 310 310 309 309 310 311 311 311 310 310 311 311 311 312 314 316 314 310 308 312 312 313 314 315 315 303 294 298 317 316 315 314 312 309 309 309 310 308 310 307 306 306 305 305 304 304 303 304 302 300 303 304 303 301 302 302 302 303
309 309 309 308 309 310 310 309 309 309 309 310 310 310 310 309 310 310 310 310 311 309 310 310 309 307 307 308 308 309 309 310 310 310 310 310 310 310 309 311 313 313 309 301 311 311 303 297 306 313 313 312 315 313 307 302 302 311 312 312 313 311 310 310 309 308 308 308 306 299 305 303 304 303 302 303 304 304 302 301 301 301 302 302 303 303 302
308 310 310 310 309 308 308 309 309 310 310 310 311 311 311 310 309 308 308 309 309 309 309 308 307 306 306 307 307 308 308 308 309 309 309 310 308 307 306 306 312 313 312 311 310 307 303 304 310 312 313 312 314 304 308 298 306 314 312 311 309 311 310 309 308 307 307 306 303 304 307 305 302 302 301 302 302 303 303 304 303 302 303 303 304 304 304
310 310 309 309 308 308 309 310 310 308 309 311 310 310 310 310 309 307 308 308 308 308 307 307 300 305 307 307 307 306 307 308 308 308 308 307 308 307 305 307 310 309 298 299 300 302 307 309 308 304 312 313 309 296 296 305 309 310 312 310 310 308 308 308 308 307 306 306 306 305 304 306 304 304 303 303 303 303 304 304 304 303 303 303 304 305 304
308 307 307 308 309 309 309 308 307 308 308 310 309 309 309 309 308 308 308 308 307 308 307 307 304 303 305 306 307 307 307 307 307 307 308 310 311 311 310 312 310 307 292 305 308 312 311 311 312 311 298 305 304 290 293 307 309 311 313 311 309 310 309 309 308 307 307 307 307 306 308 305 306 305 304 304 305 305 306 305 305 305 304 305 305 303 302
308 308 307 308 308 308 308 306 306 306 306 307 308 308 308 307 307 306 306 306 306 308 307 307 306 306 305 307 306 305 305 306 306 307 306 307 309 311 312 312 310 301 293 305 308 309 311 310 308 297 287 289 288 291 303 308 309 309 311 309 308 310 311 308 308 308 308 307 305 307 307 304 307 307 306 306 305 306 305 305 307 306 304 303 302 301 301
308 308 308 308 308 306 305 305 305 306 307 307 306 306 306 306 307 306 306 306 305 306 305 306 306 305 305 306 306 307 306 306 306 306 305 305 305 308 310 302 308 307 303 297 307 309 310 306 297 289 290 288 289 290 307 308 309 308 307 307 309 309 308 308 307 307 307 308 307 307 308 306 307 307 307 307 304 305 306 305 304 304 303 302 302 301 301
309 308 308 302 306 307 306 307 307 307 306 305 305 304 304 305 305 306 305 306 306 306 307 307 306 306 306 306 306 306 307 307 308 308 308 308 306 307 307 301 305 299 294 292 309 309 303 286 286 287 287 287 289 299 307 308 307 309 309 309 308 306 307 307 307 307 307 307 306 308 307 308 308 307 308 309 308 307 304 300 301 303 303 303 302 301 301
309 309 309 309 310 309 308 309 307 307 306 305 304 304 304 305 305 306 306 306 306 307 307 307 307 307 307 306 305 306 306 306 307 308 308 309 308 306 300 296 293 293 298 306 305 306 302 300 290 286 288 287 287 305 309 310 309 311 310 311 310 309 309 308 307 308 308 308 306 304 301 305 309 309 305 304 305 304 304 302 303 303 303 302 301 300 299
304 304 305 307 308 309 309 308 307 307 306 305 306 306 305 306 306 307 307 307 306 306 306 307 306 307 306 307 307 307 307 306 303 305 308 308 310 310 311 311 305 296 297 294 294 291 285 287 286 287 287 287 298 305 309 310 309 309 310 311 310 310 309 309 309 309 308 306 306 306 305 305 305 305 304 304 304 304 304 303 302 303 303 303 302 302 303
300 300 301 302 303 303 304 304 304 303 304 305 306 306 307 306 305 305 306 306 306 306 306 306 306 306 307 305 306 308 309 308 307 305 308 310 310 310 309 297 288 289 298 309 307 302 288 286 287 287 285 287 303 307 309 309 308 309 307 307 307 308 308 308 308 309 309 308 307 305 306 306 306 305 305 305 304 304 303 303 303 303 304 302 302 301 302
295 296 296 297 298 298 299 299 299 300 301 302 303 304 306 305 304 303 303 304 305 303 305 305 306 307 308 307 308 308 308 308 309 310 309 309 310 310 309 309 308 299 297 307 308 301 288 284 286 286 293 303 305 307 309 309 309 307 308 306 307 309 306 306 301 302 306 306 307 305 305 305 307 304 303 304 305 303 304 303 304 299 294 297 301 303 302
294 295 295 295 295 295 296 296 296 296 297 298 300 300 302 303 301 299 300 299 303 303 304 305 305 306 307 306 307 306 307 308 307 303 307 307 308 304 303 307 308 303 306 305 310 307 304 304 304 298 298 302 306 307 310 309 309 307 304 307 308 308 306 305 304 306 307 307 306 306 306 305 306 307 306 304 303 302 302 301 302 304 300 301 301 303 302
292 293 295 295 295 295 294 294 294 294 294 294 295 296 298 299 299 299 298 291 298 299 300 303 304 303 304 304 303 306 307 307 306 307 304 308 307 308 305 300 307 305 307 309 309 310 309 306 298 296 297 305 306 308 301 298 305 308 308 304 303 307 306 306 305 305 306 306 305 306 305 306 306 306 304 304 304 304 302 302 303 303 302 301 304 302 302
Wind_Speed
9 10 12 16 18 18 18 18 19 21 21 20 19 17 16 14 10 7 12 12 15 11 7 9 7 10 7 8 6 4 2 3 7 9 12 14 15 17 18 17 17 18 18 18 20 20 16 16 19 19 18 17 16 15 15 12 13 12 11 11 16 16 16 14 13 12 11 11 13 13 13 13 12 11 10 10 11 10 10 10 9 10 10 10 10 10 10
11 9 9 10 14 15 18 20 20 20 19 19 17 16 15 17 14 11 8 11 11 10 11 9 8 6 3 3 2 2 4 4 6 9 12 16 16 17 18 18 18 17 18 18 18 18 18 17 17 16 17 18 16 16 13 13 14 14 16 15 16 16 16 15 14 13 13 13 14 12 13 13 12 11 10 10 10 11 11 11 10 10 11 10 10 10 11
10 10 6 7 10 14 18 19 19 19 18 17 16 14 14 14 13 12 11 12 14 12 10 11 9 8 5 4 7 5 4 3 6 8 11 14 15 17 17 17 18 18 18 18 17 18 20 19 17 16 16 16 15 18 16 16 16 15 15 16 16 16 16 16 16 15 15 15 14 13 13 12 12 13 12 11 10 11 11 11 11 11 10 11 10 10 11
8 11 10 10 10 12 13 15 20 21 21 19 16 14 14 14 14 14 12 11 8 4 8 7 6 6 6 6 7 6 6 6 5 8 11 13 14 15 16 16 16 18 20 20 21 20 21 21 19 16 15 14 16 17 15 16 15 16 15 16 16 16 16 16 16 16 15 14 13 13 13 13 13 13 11 11 11 11 11 12 11 10 11 11 10 10 9
4 7 8 9 11 9 11 15 17 17 16 15 15 15 16 15 13 12 10 12 8 9 5 7 7 7 8 5 6 8 8 6 6 8 11 12 14 14 15 17 18 18 20 20 20 20 20 20 18 19 16 15 14 15 15 14 14 15 16 16 15 16 16 16 15 15 14 14 14 14 13 13 12 12 11 12 11 12 12 11 10 11 11 11 10 10 10
4 5 8 7 8 12 12 10 14 16 15 15 16 14 15 14 13 10 9 8 10 11 10 10 8 8 7 6 2 3 5 4 6 8 10 12 13 14 16 17 18 19 17 17 19 20 18 17 18 16 17 16 16 16 16 15 16 16 16 16 15 15 15 16 16 15 14 14 14 14 13 13 12 12 13 13 11 10 10 10 10 11 11 11 10 10 10
4 7 6 6 10 10 4 6 12 15 15 14 15 12 14 15 16 16 14 13 14 12 10 9 10 10 8 1 3 7 6 7 8 9 11 13 13 15 16 18 18 19 19 18 18 19 19 18 16 18 16 15 15 16 16 16 14 16 16 17 15 17 17 16 16 15 14 14 14 14 14 13 12 12 11 11 12 11 10 10 10 10 10 11 10 10 10
4 5 5 7 8 2 1 4 6 11 14 12 12 14 14 15 16 16 15 16 14 12 12 12 11 11 1 1 6 9 9 9 11 9 10 11 13 14 14 16 16 17 18 17 17 16 16 18 17 17 14 15 16 16 17 17 16 17 17 17 17 16 17 16 16 15 14 14 14 14 14 13 13 13 13 12 12 10 10 9 8 8 9 9 9 10 10
4 3 3 5 5 7 6 6 7 9 12 13 12 8 12 13 14 14 14 17 16 14 13 13 13 4 2 8 8 9 10 10 10 10 9 9 12 13 13 15 16 16 16 17 17 17 15 15 16 16 15 15 14 15 16 16 18 17 16 17 17 17 16 15 14 15 14 14 14 14 14 14 13 13 13 12 11 10 9 7 8 8 7 8 8 8 10
6 5 3 5 4 5 6 4 3 4 3 5 10 9 9 13 14 14 16 16 14 13 13 14 8 1 6 7 10 7 7 7 9 9 7 8 10 12 14 14 16 16 12 15 14 16 19 18 17 15 16 16 16 17 17 17 17 18 17 16 15 15 14 14 13 13 14 14 14 14 13 14 13 12 11 10 11 9 11 10 8 7 8 8 8 8 9
7 5 4 1 4 2 4 5 1 1 1 3 4 7 9 9 13 14 16 15 13 12 12 13 7 6 8 9 4 4 5 7 8 8 9 9 11 12 13 15 15 18 17 16 16 16 18 17 17 15 17 18 17 17 17 17 17 18 18 18 17 15 14 14 13 13 13 14 14 14 13 13 12 13 11 10 9 9 9 9 9 8 8 6 5 6 7
5 5 3 2 2 1 4 5 3 2 4 3 6 8 5 5 6 14 14 13 12 11 13 9 7 7 7 4 5 6 2 6 8 9 11 11 11 11 13 14 15 16 16 17 17 17 16 16 17 17 17 17 17 17 17 15 15 15 15 14 14 13 13 13 13 12 12 13 13 13 13 12 11 11 10 9 9 10 9 8 8 8 8 8 10 9 9
7 7 0 2 3 2 5 4 3 3 3 7 8 6 3 6 8 8 5 11 13 14 12 8 7 9 5 4 4 1 5 6 8 9 10 10 10 13 13 14 15 16 16 16 19 19 17 18 17 17 16 17 17 16 16 15 15 15 13 13 13 13 12 13 13 12 12 13 14 12 11 11 11 11 10 10 10 9 10 9 9 8 9 8 8 8 8
4 3 2 1 2 5 4 9 3 4 6 6 4 6 6 5 7 4 7 3 3 2 5 5 7 2 5 4 4 4 5 7 8 11 13 14 12 15 14 15 14 14 14 16 17 18 18 18 17 16 16 16 16 16 15 15 14 12 13 13 14 14 13 14 13 12 10 9 8 8 9 10 10 10 9 9 9 10 9 9 10 9 9 7 7 7 8
3 4 2 1 3 2 5 11 6 3 3 2 5 1 2 6 7 9 2 3 2 2 5 5 5 2 3 2 3 3 5 9 10 12 12 15 16 15 15 17 15 14 14 15 17 19 17 18 17 17 17 17 16 15 15 15 14 13 13 12 12 13 13 13 13 13 12 12 9 8 8 9 10 10 9 8 8 8 7 8 9 9 9 8 8 8 8
3 3 1 1 1 4 7 4 1 4 6 2 1 1 3 5 6 5 1 2 3 2 3 5 6 3 2 2 3 4 5 8 7 11 12 13 14 15 16 15 14 15 15 16 16 17 15 15 15 16 16 16 15 14 15 15 15 14 14 13 12 13 13 13 13 12 13 13 11 10 10 10 10 10 9 9 9 8 8 8 8 8 8 8 8 9 9
3 1 3 6 5 5 3 6 2 5 2 1 1 3 5 5 6 2 3 4 4 2 1 2 4 4 2 3 4 3 5 8 10 11 13 14 16 16 17 17 16 13 14 15 14 15 15 17 15 15 15 16 17 16 15 15 15 15 15 14 13 12 13 13 13 12 12 11 11 11 10 11 10 10 10 10 9 10 9 9 9 9 9 9 9 9 9
7 7 12 6 7 8 2 2 4 1 4 3 3 5 5 6 7 6 6 6 6 5 2 3 4 2 5 3 4 4 5 7 11 11 11 11 13 14 16 16 18 15 14 15 15 16 15 15 15 15 15 15 16 14 15 15 15 15 15 14 13 11 11 11 12 12 12 11 11 10 11 10 10 10 11 11 10 10 11 11 10 10 9 9 10 10 9
2 2 6 5 7 1 3 2 3 3 4 4 3 4 7 8 8 7 7 8 8 7 5 5 3 3 2 2 2 3 5 7 10 11 12 11 12 15 17 17 16 14 14 14 15 15 14 14 14 14 15 14 14 14 14 12 14 15 14 14 14 12 11 11 11 12 12 11 10 11 11 10 10 10 11 11 11 11 11 11 10 9 10 10 10 10 9
6 3 5 4 2 4 7 1 2 2 5 5 6 5 6 8 9 9 10 10 10 8 8 6 6 5 4 3 4 4 3 5 8 9 10 12 12 12 13 16 16 15 15 15 15 16 15 15 14 14 14 14 14 14 14 15 15 14 13 13 13 13 13 11 11 12 11 13 13 11 11 11 11 11 11 11 11 11 11 11 10 10 10 10 11 10 10
4 13 9 5 8 4 5 2 5 4 5 4 4 3 6 7 6 7 10 11 10 10 10 9 8 8 7 6 5 5 4 3 7 8 9 10 11 13 14 14 14 13 14 15 15 15 13 13 13 13 14 14 15 16 15 15 15 14 13 14 13 14 13 12 12 12 11 13 11 11 11 11 10 10 10 10 10 10 11 10 11 10 10 9 9 9 9
5 3 7 14 4 2 3 3 4 6 7 6 3 4 7 7 7 6 7 9 10 10 11 10 10 9 8 7 5 7 6 7 6 7 8 8 10 11 12 12 14 12 12 13 14 14 12 12 13 13 14 13 13 14 12 14 16 14 14 13 14 13 11 11 11 10 10 10 9 9 10 10 10 9 8 7 9 9 10 10 10 8 7 8 9 8 8
2 4 2 3 5 3 2 1 1 6 3 3 7 7 8 7 8 4 5 7 8 10 10 10 10 10 9 9 8 7 6 5 4 5 8 8 8 9 10 12 13 11 11 11 13 13 11 11 13 13 12 12 12 13 12 11 16 17 15 13 13 11 10 10 11 11 10 10 9 9 10 10 10 10 8 6 11 9 3 9 9 10 9 9 10 9 8
9 5 5 3 2 4 1 3 3 5 5 4 6 6 3 3 2 5 8 9 8 8 9 9 9 9 9 9 9 9 8 5 4 3 3 5 7 7 7 8 11 10 9 11 13 14 11 10 12 12 12 11 11 13 12 13 12 12 15 13 11 10 9 9 10 10 11 11 11 10 10 10 10 10 10 9 5 8 7 11 11 11 11 10 11 10 8
6 5 5 4 3 5 3 7 7 6 9 9 6 6 6 5 6 7 8 8 9 9 8 9 9 8 8 8 8 8 8 7 5 3 3 4 4 3 5 4 5 10 9 7 10 12 12 11 10 10 11 11 12 14 14 14 14 14 14 12 11 11 10 10 11 11 10 11 11 11 12 12 11 11 11 11 11 8 5 7 4 8 10 11 12 12 11
7 7 1 5 6 1 7 7 4 6 7 5 1 4 5 6 6 8 9 8 7 8 8 8 8 8 7 6 6 6 7 7 7 5 5 4 4 3 4 5 7 8 5 6 8 9 9 12 11 11 11 12 12 12 13 14 14 14 14 13 14 12 12 13 13 11 11 11 11 11 11 11 10 10 10 10 10 10 9 7 4 2 1 3 6 10 10
5 4 6 3 2 4 6 3 3 4 4 6 6 6 7 5 3 6 6 7 7 7 7 7 6 6 7 7 7 7 6 5 2 1 4 5 5 4 4 6 6 6 6 6 8 9 10 11 11 10 9 9 7 8 10 14 13 13 11 11 9 10 15 14 13 13 12 11 11 10 9 10 10 11 11 11 10 11 11 11 10 10 9 7 4 6 6
1 6 6 2 5 1 0 2 1 2 4 6 6 6 8 8 5 4 6 5 4 3 6 7 7 5 5 5 4 6 5 2 2 3 5 5 4 4 4 5 6 5 6 6 8 7 5 9 9 9 8 9 9 8 4 2 5 7 9 9 10 9 9 9 8 8 9 10 9 9 10 11 10 10 9 9 9 10 10 10 10 10 9 10 9 7 8
7 2 5 4 3 5 5 2 2 4 6 6 5 5 8 12 11 5 6 6 5 5 5 6 5 5 4 4 4 4 3 3 4 3 4 5 5 5 6 6 6 7 7 8 9 7 8 7 8 7 9 10 10 9 9 9 7 8 9 11 9 9 10 9 9 7 8 9 10 10 9 8 9 9 9 9 9 9 9 10 10 10 10 9 9 9 8
4 7 2 4 4 5 4 2 3 4 4 4 6 5 2 4 5 4 6 7 6 7 6 5 6 6 5 5 5 4 4 4 4 4 3 4 6 5 6 6 7 6 7 7 7 8 9 10 10 10 10 9 11 12 11 10 9 11 11 11 10 10 10 11 10 11 9 9 8 8 8 8 9 9 9 9 10 10 9 10 10 10 10 10 10 10 12
4 7 7 4 1 4 3 1 1 1 1 2 4 4 1 2 3 4 6 6 6 6 6 5 5 4 5 4 4 4 5 3 4 4 4 2 5 6 6 7 6 6 6 7 8 8 9 9 8 8 9 11 11 12 12 12 11 12 11 10 9 12 13 14 11 10 9 9 9 10 10 9 9 9 9 9 10 10 10 9 9 9 10 11 11 10 11
5 5 8 2 4 4 4 2 3 2 0 1 2 2 3 4 5 5 6 6 5 5 5 5 5 5 4 4 3 2 4 5 4 4 4 4 3 4 4 5 4 5 7 7 8 8 9 9 9 9 9 11 12 13 13 13 13 12 10 11 10 10 10 14 10 9 10 9 10 10 11 11 10 10 10 10 10 10 10 10 10 10 10 11 12 11 10
7 8 6 11 12 12 8 4 1 3 5 4 2 1 2 2 2 3 3 4 4 4 4 5 4 4 3 2 2 2 3 4 5 4 4 3 4 3 3 3 2 3 4 5 6 7 8 9 9 9 10 11 12 13 13 12 12 11 11 11 10 10 11 11 10 10 9 10 10 11 10 11 10 10 10 10 10 9 9 9 10 10 10 11 11 11 11
2 5 3 10 3 3 5 9 10 9 5 4 3 2 2 1 1 2 4 4 5 5 5 4 3 3 2 2 2 2 1 1 3 4 4 3 3 4 3 3 1 1 2 3 5 6 7 7 8 9 10 10 12 12 12 12 11 10 11 10 9 10 12 11 10 10 10 11 10 11 10 10 10 9 9 10 9 9 9 10 10 10 10 11 11 11 10
2 1 2 7 9 2 1 1 1 3 2 3 3 2 2 1 3 5 5 5 5 4 3 2 2 2 2 2 3 4 5 6 6 5 5 4 3 1 2 2 2 3 2 3 5 5 5 6 5 6 7 10 11 10 10 11 10 9 10 9 9 10 11 11 11 10 10 10 9 11 10 10 10 9 9 9 9 8 9 10 10 11 10 11 10 9 11
2 2 3 4 5 5 2 2 3 3 2 2 2 2 2 1 1 2 3 4 4 3 2 2 1 3 3 3 4 5 6 6 6 6 5 4 3 2 2 3 3 4 4 4 2 1 3 3 12 10 1 6 6 7 9 10 10 10 9 9 10 9 10 11 10 10 9 9 9 9 9 9 9 9 9 9 9 9 10 10 10 10 9 9 9 9 9
0 3 4 4 4 5 4 3 1 1 1 2 3 3 3 2 2 3 2 2 4 3 2 0 2 3 4 4 6 6 7 6 5 5 4 3 2 2 2 1 1 2 4 5 4 4 5 4 10 11 6 3 5 7 8 2 9 9 8 9 8 9 9 10 10 10 9 9 8 9 8 8 8 7 7 7 8 10 10 9 9 9 10 9 8 8 9
3 3 4 5 6 6 5 2 1 0 0 0 2 3 2 1 0 1 2 2 2 3 3 2 2 2 2 2 3 6 6 5 4 4 3 4 4 4 2 3 3 2 1 4 2 2 6 9 9 6 6 5 5 6 6 5 7 2 9 9 9 8 10 10 10 10 10 9 9 9 9 9 9 8 8 8 7 7 5 1 3 4 4 7 9 9 9
5 4 4 5 8 8 4 2 2 1 2 3 3 3 2 2 2 1 2 2 2 1 2 2 1 1 1 3 2 1 1 2 4 4 4 4 3 4 3 4 4 4 4 3 2 4 5 6 5 6 6 4 5 5 8 6 3 4 7 8 8 8 8 9 9 9 9 9 9 9 9 9 10 10 9 9 9 6 5 4 6 7 7 8 10 10 10
4 5 8 9 7 5 4 3 2 2 3 3 3 3 4 2 1 1 1 1 1 3 3 3 4 5 2 1 3 3 5 4 5 6 4 5 4 4 4 4 3 4 3 3 2 6 6 1 3 4 4 2 6 7 5 6 5 5 7 4 3 5 5 5 6 7 8 7 8 7 6 7 7 8 7 8 6 5 7 8 9 9 10 10 10 9 9
8 6 5 5 4 3 3 3 4 4 3 3 3 3 1 1 1 1 1 1 1 2 2 3 4 4 3 2 4 4 5 4 4 5 5 6 6 5 5 3 7 3 4 4 5 3 3 4 4 4 4 5 5 7 6 8 7 5 4 6 6 6 7 8 8 7 7 7 8 8 7 8 9 9 9 8 8 9 9 10 11 10 9 10 10 10 10
3 3 4 3 3 3 4 4 4 3 4 3 3 2 1 2 3 3 2 1 1 1 3 4 5 8 7 5 4 4 3 4 5 5 4 5 5 6 5 5 8 6 5 5 4 4 4 5 3 4 2 5 5 10 9 9 8 8 8 8 8 9 8 8 8 8 9 8 8 9 9 9 9 9 8 8 9 10 11 11 10 10 10 10 10 9 7
3 4 3 4 3 3 4 4 4 3 3 2 1 2 1 2 3 2 2 0 2 2 2 1 2 4 4 2 2 3 3 3 4 3 3 3 2 3 5 3 6 6 0 3 3 4 3 4 5 4 9 6 6 9 9 6 6 6 7 7 8 8 8 7 7 7 7 8 8 7 8 9 9 9 10 10 10 10 10 10 11 10 9 8 8 8 8
3 3 4 4 4 4 3 2 2 3 4 4 2 1 2 3 3 3 2 3 3 2 3 1 2 3 3 3 3 3 4 4 5 5 5 2 4 3 0 3 6 4 2 3 3 3 2 1 7 9 11 12 11 9 6 5 5 4 1 1 2 3 5 6 6 6 7 8 8 9 9 10 9 9 9 9 9 9 9 8 8 7 8 8 7 7 7
4 3 4 4 3 2 3 3 3 3 1 7 2 3 4 4 5 2 3 1 1 4 4 2 3 4 3 4 3 3 3 4 4 4 5 4 4 4 4 1 2 3 3 4 4 3 4 7 7 8 8 8 9 8 5 6 6 5 6 6 7 7 6 6 6 6 6 6 6 7 7 7 7 7 8 8 8 8 8 8 8 8 8 8 8 7 7
6 3 1 3 2 2 1 3 3 3 3 2 2 4 1 1 3 1 2 6 4 2 1 1 2 2 3 3 1 2 3 3 4 3 4 4 3 3 5 6 6 6 3 4 5 2 6 5 7 6 6 6 7 6 5 5 5 5 5 5 5 5 4 4 4 5 5 5 5 4 5 6 6 8 9 9 8 8 7 8 8 8 8 8 8 8 8
12 6 3 1 2 4 3 3 3 3 2 1 1 2 1 4 2 1 3 1 2 3 0 1 2 2 3 3 4 3 3 4 3 3 4 2 4 4 6 6 6 2 2 2 6 5 5 4 4 4 3 4 6 5 4 3 4 5 5 6 5 5 5 5 6 6 6 6 5 6 5 6 7 6 5 5 5 7 7 8 8 8 8 8 8 8 8
8 8 8 9 8 4 1 0 1 1 2 2 3 5 2 2 1 3 2 3 1 2 1 1 2 1 1 3 3 3 2 3 4 5 5 5 4 1 3 3 4 4 2 5 7 6 8 7 5 3 2 2 5 4 4 3 3 4 5 5 5 5 5 5 4 5 5 3 4 5 5 5 6 6 7 8 7 7 8 8 8 8 8 8 8 9 9
12 11 10 10 11 12 11 9 8 7 7 7 5 3 2 1 0 3 4 3 6 1 3 1 3 3 2 1 3 3 2 2 3 3 4 5 4 3 5 6 5 5 5 3 6 5 6 6 5 2 2 4 4 4 3 2 3 3 3 4 5 5 5 6 6 6 6 7 6 5 5 6 6 7 7 7 7 7 7 7 7 8 8 8 8 8 7
12 12 11 10 10 11 11 9 9 9 8 9 8 7 5 3 4 6 7 8 7 7 3 0 1 1 1 1 0 2 3 3 3 4 4 4 4 4 3 3 4 2 4 5 6 6 5 6 6 4 4 5 5 5 4 3 3 4 5 5 5 5 5 4 0 3 4 5 5 4 5 6 6 6 7 7 6 6 6 7 7 7 8 8 8 9 9
9 8 7 8 9 11 13 12 11 11 10 10 10 10 8 6 7 8 9 11 9 7 6 5 5 7 7 6 3 2 2 3 3 5 5 4 3 3 3 2 3 2 1 3 1 4 6 5 5 5 5 5 4 4 4 3 4 3 2 4 4 6 3 3 4 4 5 5 5 5 6 6 7 7 7 7 6 6 6 7 8 7 5 5 5 6 7
11 9 8 9 11 11 12 12 13 13 12 12 11 11 10 8 8 8 9 13 10 8 9 7 4 7 8 8 8 6 6 6 4 4 4 3 4 4 2 1 2 3 3 4 2 0 1 5 7 6 5 5 5 4 3 3 4 5 4 4 4 4 4 3 4 4 4 5 4 6 6 6 6 7 6 6 6 6 7 7 7 6 6 4 6 6 8
Wind_Direction
242 238 206 181 187 206 203 211 202 209 205 209 220 213 217 210 223 214 187 211 218 234 194 158 143 159 144 133 141 86 87 181 182 192 185 182 190 181 179 176 177 176 174 176 173 173 169 169 171 171 170 168 169 174 170 166 164 166 160 164 163 163 168 161 153 153 153 153 170 163 155 158 160 169 168 168 173 169 167 164 169 165 164 163 163 163 157
232 243 225 177 188 199 209 209 209 205 210 208 212 221 220 222 212 236 258 201 213 227 232 134 100 47 62 95 99 249 228 185 186 189 189 185 190 184 182 179 178 178 172 173 165 163 172 167 163 169 170 171 171 168 168 165 169 167 170 173 167 165 165 163 157 156 157 164 170 158 158 162 160 170 165 172 173 170 169 167 168 165 166 164 168 163 162
220 228 209 189 219 210 205 203 212 211 213 215 213 220 225 227 226 230 242 268 221 187 235 241 162 160 198 237 245 247 269 243 190 195 195 194 192 189 186 182 177 176 170 165 161 165 175 171 168 176 170 166 163 169 171 168 174 172 171 170 169 165 162 160 161 163 165 170 165 157 161 163 160 173 170 179 172 174 171 168 169 166 170 168 171 167 166
221 226 231 232 217 209 218 212 204 203 206 209 202 210 205 210 216 218 234 230 241 218 228 245 274 254 224 227 251 247 235 244 210 203 203 201 198 192 186 180 179 176 176 169 172 171 173 174 177 170 161 163 168 170 167 168 170 174 170 170 165 162 161 160 163 165 168 164 160 159 162 163 161 177 174 179 173 177 171 169 170 168 172 171 172 168 168
225 225 223 217 230 239 226 220 220 213 209 212 206 209 211 216 219 223 220 229 229 251 251 254 244 243 247 245 245 239 223 236 236 208 210 206 198 192 187 186 183 182 182 175 175 173 175 177 177 175 165 165 168 165 171 168 171 172 167 163 160 161 164 164 164 168 166 161 159 160 165 162 162 181 179 174 178 178 172 169 169 172 174 171 172 169 171
239 229 228 233 221 216 220 210 209 215 217 206 213 204 209 209 212 234 233 238 238 244 254 263 274 266 262 244 229 24 329 271 233 223 209 211 196 191 188 185 184 186 183 177 178 177 176 174 176 172 169 165 166 169 173 173 174 174 168 167 165 162 167 166 166 171 166 157 156 159 159 158 161 177 176 178 179 174 168 168 172 173 175 173 174 172 174
235 240 247 224 225 223 216 208 200 205 219 211 214 215 206 211 213 221 231 234 235 236 246 250 253 260 262 70 273 258 231 253 256 228 207 203 195 191 187 184 185 184 183 174 177 176 171 170 171 171 167 162 160 169 171 171 172 172 167 164 164 170 172 172 172 169 162 156 154 156 157 158 161 174 190 169 177 172 170 172 173 175 175 175 175 173 175
255 261 241 232 231 133 188 199 216 196 205 218 208 218 213 212 217 217 227 236 236 237 240 248 255 250 304 309 252 251 251 224 227 224 222 198 190 190 188 180 183 180 175 176 176 175 163 168 170 168 163 164 168 166 167 166 169 170 173 169 169 170 173 170 165 163 158 154 154 157 159 162 166 165 170 172 173 169 170 170 170 172 175 177 173 175 172
276 283 248 229 67 156 190 170 209 192 200 198 207 212 213 215 216 219 228 230 233 238 240 243 245 249 279 259 248 249 242 228 226 226 219 201 186 182 185 180 179 183 178 177 171 165 165 168 168 175 165 171 169 168 171 172 172 167 164 172 172 172 170 165 161 159 158 154 155 158 160 163 166 168 170 169 170 171 157 148 177 169 173 179 172 174 171
301 289 248 208 185 205 166 60 43 203 246 255 203 217 227 210 216 217 223 228 228 230 235 236 233 115 256 248 252 221 192 215 219 220 209 191 189 178 181 178 171 171 156 165 165 172 169 170 171 168 159 162 171 174 177 172 176 174 177 173 170 168 166 162 158 158 158 157 156 159 161 165 166 166 168 167 172 164 160 170 160 157 176 175 176 173 177
284 272 289 306 241 70 332 94 300 75 307 245 183 214 234 196 218 215 222 228 228 228 220 226 182 207 239 243 166 91 206 216 207 198 181 186 182 181 177 180 165 166 163 166 169 177 173 168 169 168 170 176 174 175 177 175 175 176 179 182 178 170 165 162 161 160 158 155 155 159 163 165 163 163 167 165 164 160 163 162 162 167 163 148 149 177 179
258 275 261 266 339 101 14 344 237 244 152 196 199 210 202 42 253 216 217 228 229 219 221 222 190 211 233 244 55 8 343 220 192 189 176 176 171 172 176 180 160 149 151 163 169 176 173 174 171 170 173 176 178 176 174 170 170 170 172 168 163 159 156 157 158 157 156 155 156 159 159 154 153 154 153 159 161 165 156 151 152 159 163 168 175 182 177
302 287 153 67 246 51 334 277 297 169 187 180 201 205 56 344 343 334 280 228 216 216 220 208 215 198 261 79 118 208 248 183 181 174 159 151 169 164 186 173 168 166 163 169 174 176 176 173 176 182 174 175 177 178 170 170 176 175 172 168 165 167 163 159 156 154 153 155 152 150 148 148 147 147 156 158 159 160 155 156 160 164 170 168 173 176 174
258 297 347 231 313 63 324 338 46 113 171 189 181 34 307 317 354 325 287 338 16 315 235 196 222 198 118 121 114 149 207 174 165 162 159 158 176 178 175 150 169 165 170 164 169 174 173 177 184 181 182 182 181 175 171 171 169 166 169 179 183 178 163 158 151 144 133 121 112 124 136 140 147 151 154 154 161 163 168 162 159 160 165 171 172 175 176
240 202 123 23 243 72 354 351 305 68 288 60 12 269 347 2 7 315 309 347 106 226 208 223 236 189 154 78 69 75 181 156 170 157 160 162 168 164 152 156 167 157 164 172 174 171 174 182 179 181 186 186 188 179 180 172 165 165 161 156 160 163 161 156 149 145 142 134 129 126 125 131 138 141 142 147 154 151 158 150 154 156 169 172 178 180 180
298 304 85 121 311 338 358 315 44 49 29 74 304 336 64 23 7 334 358 10 4 216 222 200 203 204 202 101 59 90 155 153 158 148 149 163 161 155 149 158 159 168 169 174 176 180 174 177 181 183 185 187 183 177 176 175 176 168 163 164 166 163 159 155 150 150 149 146 139 137 136 136 136 138 145 147 141 155 149 152 160 167 176 179 185 184 185
285 19 273 224 263 306 335 302 80 110 100 45 106 88 62 43 53 21 342 32 63 45 171 175 152 173 174 99 91 116 154 158 164 162 168 161 155 151 150 156 150 171 170 174 178 178 176 176 178 179 187 186 186 181 179 176 170 167 169 177 176 167 161 156 150 149 147 147 145 144 144 145 146 149 155 153 161 170 165 177 180 183 183 181 187 187 190
317 282 262 278 236 246 195 183 289 136 133 119 31 46 45 61 63 36 33 46 65 74 54 140 168 179 140 124 108 114 163 169 166 168 167 159 148 150 152 152 151 170 173 176 177 177 171 177 179 180 183 180 168 175 178 180 180 177 172 177 179 173 156 150 149 145 143 143 147 149 153 161 159 165 163 172 182 180 182 188 187 185 184 184 191 194 189
201 259 245 255 309 353 105 263 104 55 23 15 40 59 41 45 42 43 44 52 55 69 58 43 71 126 94 168 136 133 174 175 168 166 165 166 168 164 163 155 161 175 167 175 174 169 175 181 186 185 189 183 173 171 169 168 149 147 161 175 182 179 149 147 144 146 144 149 153 158 165 169 171 174 178 182 185 185 185 187 186 188 189 189 191 190 185
253 229 175 238 194 342 358 268 130 88 65 20 12 22 50 35 25 38 34 41 51 48 56 56 80 92 99 121 137 122 142 178 181 176 175 168 173 170 165 159 170 178 168 174 175 177 176 180 187 186 192 189 184 180 172 170 176 173 175 183 183 184 168 153 154 155 157 155 158 165 173 177 179 181 180 182 184 186 186 185 188 193 194 189 188 184 180
270 275 248 136 140 156 181 214 44 27 34 33 304 46 38 34 12 24 51 40 37 35 33 36 59 72 78 85 100 108 111 147 195 184 186 181 178 171 179 168 177 186 171 170 174 176 177 178 186 187 191 192 189 188 185 183 170 162 176 177 181 179 166 160 158 160 158 159 168 166 171 176 177 177 175 180 186 193 194 193 198 197 194 183 185 183 185
257 11 2 2 317 130 278 75 62 60 8 293 42 33 44 32 22 1 27 50 49 41 33 27 37 52 59 60 74 116 142 154 168 179 171 173 180 181 183 170 184 189 176 167 166 175 178 184 191 190 191 190 185 178 184 188 160 170 173 176 180 174 165 154 145 143 143 151 153 156 163 168 171 177 172 172 197 198 192 192 178 172 166 179 179 181 186
271 81 81 98 282 318 289 23 39 103 170 8 44 43 38 17 355 347 40 50 41 48 44 35 33 32 36 49 53 66 85 82 98 147 160 169 186 178 189 177 178 189 182 159 164 165 179 185 193 194 190 188 171 171 181 172 181 166 169 176 176 172 162 156 151 148 149 156 160 166 172 178 180 175 161 72 46 40 98 132 144 142 155 157 175 190 191
301 317 326 346 337 268 215 112 75 43 34 93 98 59 68 98 338 14 50 40 45 56 52 47 35 38 35 37 52 69 76 83 98 107 136 171 169 172 154 157 169 187 187 171 164 159 170 198 204 197 189 186 165 174 172 160 159 169 171 174 166 157 154 149 142 153 157 162 166 171 174 174 172 169 165 165 153 55 53 157 155 163 170 167 178 182 187
298 346 353 341 241 224 84 40 45 48 48 16 28 58 42 49 75 65 54 48 40 47 54 48 43 38 40 44 45 52 72 85 92 89 92 117 81 147 123 123 185 200 194 170 163 170 171 190 209 199 189 183 180 185 176 166 157 159 166 166 163 155 154 145 156 166 165 166 174 177 177 177 179 178 174 177 176 171 69 48 133 169 177 174 176 181 182
321 313 35 247 203 75 127 180 93 71 81 85 60 53 48 30 357 46 55 57 50 43 49 49 48 46 42 45 53 68 68 77 93 133 130 120 138 163 159 172 198 209 168 140 140 157 168 191 212 206 191 187 186 183 180 176 166 160 168 174 172 168 167 158 164 173 174 171 177 180 178 177 178 177 182 180 177 164 164 163 144 73 337 231 202 184 181
330 298 94 356 64 97 59 76 88 65 72 70 44 30 28 13 280 88 72 49 41 50 51 45 53 56 61 59 52 57 78 94 113 98 115 127 139 166 169 187 188 168 158 150 158 174 191 198 205 204 186 166 154 163 178 177 167 167 170 179 177 137 149 164 170 170 171 170 173 172 170 173 175 183 186 185 176 171 176 179 183 189 194 192 177 201 175
193 53 80 263 255 145 27 111 112 90 64 47 45 36 16 350 358 60 82 88 89 40 60 52 41 38 63 78 100 114 120 158 92 123 123 138 126 125 152 146 158 128 169 172 182 171 172 198 201 191 150 127 116 102 85 27 106 141 162 165 154 149 147 151 152 156 156 163 169 173 174 179 180 182 183 176 174 174 176 178 186 188 193 196 191 175 181
112 99 94 109 356 335 317 339 34 31 37 32 16 40 39 10 336 8 40 49 48 83 62 66 68 53 36 50 56 67 98 131 142 153 121 118 119 126 129 141 153 171 167 182 196 171 179 180 183 156 124 131 140 153 154 157 169 169 175 179 163 156 161 162 157 151 157 163 173 175 171 163 168 175 178 178 180 181 181 188 192 194 196 188 179 155 169
159 129 96 145 163 211 259 303 331 353 13 4 355 355 46 216 266 356 17 27 25 38 40 45 53 48 37 52 56 78 96 109 118 124 128 141 119 135 142 140 156 163 170 182 182 175 185 192 189 157 154 160 173 177 179 169 168 174 170 170 164 163 168 168 164 163 161 165 161 150 155 168 178 180 181 184 185 190 191 192 189 195 199 194 179 180 180
285 115 165 143 238 217 219 251 239 154 326 328 335 330 271 337 3 17 19 18 24 24 26 30 43 42 51 42 53 63 75 80 105 126 138 152 138 143 146 156 161 171 177 182 179 184 192 189 190 185 178 177 184 182 180 179 181 180 176 177 174 163 159 156 164 172 171 167 157 168 174 182 184 179 178 183 186 194 196 194 187 200 206 212 201 200 191
261 148 137 197 211 262 259 193 151 162 296 316 309 10 18 29 41 30 21 12 16 6 1 25 34 40 36 36 34 51 90 103 95 105 127 121 126 149 152 166 165 167 178 177 180 182 188 191 192 193 187 183 179 183 182 185 187 190 183 186 175 153 152 154 168 169 173 174 170 178 181 186 182 181 178 189 194 198 200 199 206 208 217 220 218 209 203
67 325 257 183 191 202 188 219 201 203 184 198 189 82 70 34 28 37 29 3 357 12 7 23 19 15 18 17 22 43 73 92 101 93 90 122 119 141 167 159 164 208 161 165 174 183 188 192 188 184 182 186 185 186 186 185 191 191 192 189 179 147 150 166 176 172 178 180 177 183 179 184 185 186 190 191 199 194 199 204 215 208 215 221 225 219 212
160 132 276 290 238 259 135 160 170 208 186 157 148 173 145 89 53 37 29 6 15 8 9 12 9 357 354 360 8 30 351 199 99 81 86 84 119 89 17 30 174 172 107 146 183 195 194 192 192 183 175 190 190 183 181 188 189 192 188 187 177 139 159 169 174 180 179 183 181 180 179 180 187 189 187 189 197 199 204 210 216 213 212 221 224 229 167
127 120 233 320 312 38 123 144 354 21 57 156 192 189 113 93 60 57 21 8 18 358 353 335 1 11 26 19 39 46 53 59 66 73 68 69 60 92 132 155 150 160 160 194 208 199 194 198 176 163 185 196 194 192 191 192 193 193 181 182 152 148 163 171 179 186 179 179 179 179 182 179 187 188 191 188 194 197 205 218 220 219 218 221 218 218 139
256 299 324 310 321 338 308 254 181 182 206 235 176 179 159 104 38 68 63 34 11 3 359 13 38 59 47 52 63 61 69 72 71 66 68 65 81 112 171 170 175 170 182 184 200 240 228 97 50 23 315 193 196 182 195 197 200 199 180 184 147 155 165 174 179 185 182 181 182 179 182 174 178 180 187 189 193 199 207 211 219 218 221 219 214 205 149
308 326 328 323 325 294 296 293 252 254 230 206 151 154 126 139 101 84 71 29 34 24 357 132 109 86 85 75 69 57 51 47 46 45 44 31 27 39 50 82 230 227 194 191 165 160 210 87 73 67 24 232 193 201 184 201 211 195 192 189 159 169 169 176 182 185 182 182 178 173 160 153 177 177 191 197 207 210 212 215 202 213 211 211 206 213 172
285 288 293 306 300 263 261 293 355 348 286 121 108 105 132 134 140 6 10 26 23 37 42 51 80 128 134 113 82 69 49 26 19 22 10 18 5 329 316 267 229 230 100 76 133 219 80 97 113 149 190 203 175 221 148 134 342 285 191 199 187 183 177 181 180 185 182 181 172 166 164 167 174 177 182 191 195 200 194 149 107 158 210 220 218 213 198
259 272 277 255 253 247 221 196 224 210 173 188 170 141 120 107 82 360 327 356 10 330 304 357 332 309 333 306 321 277 113 69 360 344 340 349 356 328 336 3 19 22 42 19 353 79 124 133 155 182 213 200 186 176 130 139 107 217 201 199 204 201 186 188 184 178 179 172 174 173 173 175 178 180 183 187 195 183 97 127 195 189 200 217 218 211 202
229 220 223 216 216 211 225 220 208 166 149 144 158 166 148 161 214 302 350 344 358 329 325 331 311 286 283 287 280 297 33 13 327 304 307 309 313 299 279 213 132 89 60 320 335 74 79 46 205 193 183 200 220 128 140 149 171 214 208 200 215 205 189 200 185 178 177 177 172 169 170 166 183 187 185 179 146 144 166 188 217 215 206 209 211 205 196
212 209 197 228 224 237 217 161 154 123 124 130 136 135 148 267 323 331 314 327 281 307 314 322 306 306 298 323 336 336 327 314 295 291 308 293 283 257 261 251 119 103 89 42 29 62 145 189 234 202 177 184 200 149 165 145 169 200 163 144 184 190 185 198 195 187 177 170 154 153 168 180 185 186 186 183 179 187 197 200 203 204 203 210 207 214 218
223 220 239 228 218 197 164 137 118 135 125 126 139 142 130 297 326 339 5 320 254 272 292 73 27 348 354 338 314 293 287 317 323 312 303 308 305 313 308 59 74 83 77 121 164 167 181 190 229 246 208 179 107 107 133 173 193 197 187 186 188 195 192 192 186 179 171 174 172 183 189 187 184 190 189 192 198 200 199 200 198 203 208 212 217 218 199
213 234 222 221 150 158 142 133 135 145 143 149 149 81 37 25 359 318 299 299 274 232 240 112 115 234 256 274 302 316 335 337 298 285 267 246 256 309 309 6 82 88 344 312 300 235 192 196 203 122 42 37 109 123 139 185 199 216 210 199 198 204 197 195 191 187 172 174 174 181 187 196 193 190 192 199 203 202 203 201 206 206 206 194 185 184 197
259 237 215 180 170 139 121 156 172 169 183 190 176 100 350 29 21 3 11 336 294 248 261 350 325 352 9 353 335 333 316 332 331 344 326 309 168 172 338 354 84 92 10 283 271 295 263 46 62 77 92 107 127 155 184 183 197 204 184 164 170 218 212 194 191 190 187 182 186 192 193 194 203 191 188 196 202 202 201 206 216 203 191 186 183 191 202
235 238 190 172 130 157 200 167 178 225 108 93 123 215 196 174 140 91 351 268 316 5 334 305 305 338 11 17 344 330 345 327 324 334 319 314 342 68 86 139 166 150 112 316 290 271 55 71 84 90 111 134 151 198 209 178 192 184 171 186 186 203 204 188 191 193 197 191 191 191 189 186 200 204 205 209 204 210 198 189 189 189 183 182 181 182 186
289 235 138 121 200 210 98 75 62 51 81 160 140 80 311 187 30 354 45 338 1 113 220 296 310 335 308 297 285 326 316 316 328 351 346 332 23 51 39 18 45 61 35 294 291 9 75 66 98 113 127 156 171 216 221 181 189 192 189 187 181 191 198 193 192 197 194 196 188 184 204 201 201 213 220 217 204 213 194 185 192 197 195 192 190 195 195
325 340 10 310 28 34 39 55 61 62 15 19 213 172 290 10 332 310 44 25 28 2 256 171 216 250 284 317 325 359 336 326 337 6 342 16 111 110 112 98 102 99 241 325 30 45 77 111 97 107 148 175 221 232 220 194 207 214 207 216 209 208 202 187 201 207 201 199 201 199 224 232 228 218 209 229 199 199 207 191 206 203 199 198 199 197 209
25 34 31 22 25 31 98 206 181 67 50 50 21 352 353 113 48 20 348 317 59 131 7 30 14 27 318 314 295 282 305 352 358 348 354 8 344 21 92 61 85 101 148 139 107 84 87 96 106 114 106 206 238 254 247 221 213 229 237 231 224 211 208 217 219 217 208 174 170 199 193 193 202 205 199 199 203 199 206 201 202 207 205 198 201 209 221
18 25 26 28 32 32 35 39 46 45 28 11 13 17 10 254 203 27 9 351 321 1 107 117 152 159 138 205 302 318 349 328 325 319 360 9 18 24 100 116 123 167 237 244 130 118 109 120 121 127 145 258 243 240 230 215 223 223 207 215 207 225 217 208 209 209 211 204 188 209 220 213 211 217 207 202 207 202 197 204 200 205 209 211 223 241 239
20 20 25 30 33 33 30 32 34 29 24 17 14 7 341 332 34 37 13 1 342 353 5 230 68 39 325 347 86 29 27 349 335 329 328 357 14 24 37 83 96 55 331 333 88 112 124 141 140 161 212 215 235 257 245 240 186 211 222 211 223 223 214 246 337 8 249 233 222 215 228 236 232 229 234 230 213 210 196 199 207 194 177 208 220 224 230
9 12 22 23 37 40 36 34 31 27 25 19 19 10 15 46 51 42 30 4 354 14 1 7 29 23 18 14 10 8 334 320 353 351 326 335 348 32 16 20 119 156 214 280 264 134 157 183 171 172 203 233 244 256 255 251 251 197 231 258 226 256 187 136 227 212 228 267 267 228 228 234 238 234 225 233 217 207 214 205 211 212 198 216 222 229 243
23 15 28 39 44 48 45 35 29 28 28 21 14 16 17 27 42 41 39 22 16 16 3 358 33 30 15 13 3 2 10 348 331 343 330 322 326 315 121 291 277 153 209 246 265 224 197 122 133 170 217 228 245 243 117 63 275 268 231 238 249 239 258 238 208 224 227 214 241 254 239 239 242 239 235 221 215 209 217 224 221 222 228 230 232 226 227